Flag for Netherlands Weather past 2 weeks in Arnhem, Netherlands

Now
61 °F

Partly sunny.


Feels Like: 61 °F
Forecast: 43 / 69 °F
Wind: 13 mph from West

Location: Deelen

Current Time: Jun 3, 2015 at 12:10:21 PM

Latest Report: Jun 3, 2015 at 11:25 AM


Visibility: N/A

Pressure: 30.12 "Hg

Humidity: 63%

Dew point: 48 °F

Location of ArnhemLocation

Historic Weather in Arnhem — Graph

°F

Arnhem temperature yesterday

Maximum temperature yesterday: 64 °F (at 7:25 PM)
Minimum temperature yesterday: 52 °F (at 9:25 AM)
Average temperature yesterday: 58 °F

Past Weeks' High & Low Weather Summary

 TemperatureHumidityPressure
High66 °F (May 22, 12:55 PM)100% (May 19, 9:55 PM)30.33 "Hg (May 19, 9:55 PM)
Low34 °F (May 21, 5:55 AM)32% (May 24, 6:55 PM)29.65 "Hg (May 19, 10:25 AM)
Average54 °F73%30.00 "Hg
* Reported May 19 10:25 AM — Jun 3 10:55 AM, Arnhem, Weather by CustomWeather, © 2015

Note: Actual official high and low records may vary slightly from our data, if they occured in-between our weather recording intervals... More about our weather records

Advertising

Arnhem weather history for previous 24 hours

 ConditionsComfort  
Time TempWeatherWind HumidityBarometerVisibility
10:55 AM
Wed, Jun 3
59 °FBroken clouds.14 mph68%30.09 "HgN/A
10:25 AM57 °FPartly sunny.13 mph72%30.09 "HgN/A
9:55 AM59 °FPartly sunny.13 mph63%30.07 "HgN/A
9:25 AM57 °FBroken clouds.14 mph72%30.07 "HgN/A
8:55 AM59 °FOvercast.17 mph68%30.04 "HgN/A
8:25 AM57 °FOvercast.15 mph72%30.01 "HgN/A
7:55 AM55 °FOvercast.10 mph82%30.01 "HgN/A
7:25 AM55 °FBroken clouds.14 mph82%30.01 "HgN/A
6:55 AM55 °FMostly cloudy.13 mph82%29.98 "HgN/A
6:25 AM55 °FMostly cloudy.14 mph82%29.98 "HgN/A
5:55 AM55 °FOvercast.12 mph77%29.95 "HgN/A
5:25 AM55 °FPassing clouds.13 mph77%29.95 "HgN/A
4:55 AM57 °FPassing clouds.10 mph77%29.95 "HgN/A
4:25 AM57 °FPartly cloudy.13 mph82%29.92 "HgN/A
3:55 AM57 °FOvercast.15 mph82%29.92 "HgN/A
3:25 AM57 °FPartly cloudy.12 mph88%29.92 "HgN/A
2:55 AM57 °FLight rain. Overcast.13 mph88%29.92 "HgN/A
2:25 AM57 °FDrizzle. Overcast.15 mph88%29.92 "HgN/A
1:55 AM59 °FLow clouds.15 mph82%29.92 "HgN/A
1:25 AM59 °FOvercast.15 mph82%29.89 "HgN/A
12:55 AM59 °FOvercast.15 mph82%29.89 "HgN/A
12:25 AM59 °FOvercast.18 mph88%29.89 "HgN/A
11:55 PM
Tue, Jun 2
61 °FPassing clouds.17 mph88%29.86 "HgN/A
11:25 PM63 °FLight rain. Mostly cloudy.18 mph77%29.86 "HgN/A
10:55 PM64 °FMostly cloudy.18 mph73%29.86 "HgN/A
10:25 PM64 °FCloudy.18 mph73%29.86 "HgN/A
9:55 PM63 °FDrizzle. Partly sunny.17 mph77%29.86 "HgN/A
9:25 PM64 °FCloudy.21 mph73%29.83 "HgN/A
8:55 PM64 °FPartly sunny.22 mph73%29.83 "HgN/A
8:25 PM64 °FBroken clouds.22 mph73%29.83 "HgN/A
7:55 PM64 °FMostly cloudy.21 mph73%29.83 "HgN/A
7:25 PM64 °FMore clouds than sun.18 mph73%29.83 "HgN/A
6:55 PM63 °FDrizzle. Partly sunny.24 mph77%29.83 "HgN/A
6:25 PM63 °FOvercast.21 mph77%29.83 "HgN/A
5:55 PM63 °FOvercast.22 mph77%29.83 "HgN/A
5:25 PM63 °FOvercast.21 mph73%29.80 "HgN/A
4:55 PM63 °FOvercast.21 mph73%29.80 "HgN/A
4:25 PM63 °FOvercast.22 mph73%29.80 "HgN/A
3:55 PM61 °FOvercast.21 mph77%29.80 "HgN/A
3:25 PM63 °FOvercast.23 mph73%29.77 "HgN/A
2:55 PM61 °FOvercast.23 mph77%29.77 "HgN/A
2:25 PM61 °FMostly cloudy.23 mph77%29.77 "HgN/A
1:55 PM61 °FOvercast.22 mph72%29.77 "HgN/A
1:25 PM59 °FOvercast.18 mph77%29.77 "HgN/A
12:55 PM57 °FMostly cloudy.21 mph82%29.77 "HgN/A
12:25 PM57 °FMostly cloudy.20 mph77%29.77 "HgN/A
Weather by CustomWeather, © 2015

See weather overviewHow to use our weather pages